User: anonymous   Login
Location: Unspecified
(22.6800°N, 112.2000°E)
Time: 16:05:17
(UTC+08:00)
Language:

Vanguard 2 - Orbit

View from above orbital plane
View from above orbital plane
View from above satellite
View from above satellite

Ground track
Ground track

The orbit data is extracted from the following two-line orbital elements,

1 00011U 59001A   21211.73855569 -.00000060  00000-0 -27907-4 0  9999
2 00011  32.8690 322.3544 1468106  36.5904 332.6497 11.85801469323452
Epoch (UTC): 30 July 2021 17:43:31
Eccentricity: 0.1468106
inclination: 32.8690°
perigee height: 552 km
apogee height: 2937 km
right ascension of ascending node: 322.3544°
argument of perigee: 36.5904°
revolutions per day: 11.85801469
mean anomaly at epoch: 332.6497°
orbit number at epoch: 32345

The dashed part of the orbit path shows where the satellite is in the earth's shadow,  

DLR